sat.trackr.live / text

‹ back to catalog

TRANSPORTER-11 OBJECT A

NORAD 60468 · 2024-149A

PAYLOAD ACTIVE UNKNOWN

§ Identity

Operator
Country
TBD
Launch date
2024-08-16
Launch site
AFWTR
Launch vehicle
Mass (kg)
RCS (m²)

External: N2YO · Heavens-Above · Gunter

§ Orbital elements

Epoch: 2026-05-25T02:34:40.027872Z

Period
93.97 min
Inclination
97.3731°
Eccentricity
0.0001836
Mean motion
15.32473099 rev/d
Perigee alt
467.2 km
Apogee alt
469.7 km
Semi-major
6,846.6 km
B*
2.5008e-4
RAAN
225.1163°
Arg perigee
325.3040°
Mean anomaly
34.8081°
Rev number
9,852

§ Raw data

TRANSPORTER-11 OBJECT A1 60468U 24149A   26145.10740773  .00007764  00000+0  25008-3 0  99922 60468  97.3731 225.1163 0001836 325.3040  34.8081 15.32473099 98522

JSON: /api/v1/satellites/60468 · /tle

For live sub-satellite position, see the globe view (requires WebGL).

§ Visibility from observer

Set your observer location to see the next 7 days of passes ≥ 10°. The values pass through the URL so the page stays shareable.

No JS? Fill the form by hand. The geolocation button needs JavaScript.

§ Radio — SatNOGS DB

ModeDescriptionDownlinkUplink
BPSK S-band telemetry 2.247 GHz

1 transmitter · refreshed weekly from db.satnogs.org